Other Public Products
Issued by NWS Grand Forks, ND

Home | Current Version | Previous Version | Text Only | Print | Product List | Glossary Off
Versions: 1 2 3 4 5 6 7 8 9 10 11 12 13 14 15 16 17 18 19 20 21 22 23 24 25 26 27 28 29 30 31 32 33 34 35 36 37 38 39 40 41 42 43 44 45 46 47 48 49 50

000
FPUS83 KFGF 250710
OPUFGF
PRAIRIE TO PINES WEATHER ROUNDUP
NATIONAL WEATHER SERVICE EASTERN NORTH DAKOTA/GRAND FORKS ND
200 AM CDT MON JUL 25 2016

 **SATELLITE DATA USED TO AUGMENT SKY COVER AT AUTOMATED STATIONS**
 *****  WEATHER ACROSS EASTERN NORTH DAKOTA  *****

CITY           SKY/WX    TMP DP  RH WIND       PRES   REMARKS
GRAND FORKS    CLEAR     62  58  86 W5        29.95S
GRAND FORKS AF CLEAR     62  58  88 W6        29.97S
GRAND CITY NWS   N/A     61 N/A N/A MISG        N/A
BUXTON           N/A     63  62  97 W3          N/A
DEVILS LAKE    CLEAR     61  59  93 CALM      30.02R
FARGO          CLEAR     63  58  83 SW5       29.99R
WAHPETON ARPT  SUNNY     59  55  88 W6        30.01S
$$

 *****  WEATHER ACROSS CENTRAL AND WESTERN NORTH DAKOTA  *****

CITY           SKY/WX    TMP DP  RH WIND       PRES   REMARKS
JAMESTOWN      CLEAR     62  59  90 CALM      30.03R
BISMARCK       CLEAR     64  58  80 E3        30.04S
MINOT          CLEAR     67  60  78 CALM      30.01S
MINOT AFB      CLEAR     60  57  90 SW7       30.01R
GARRISON         N/A     60  58  92 E3        30.03R
WILLISTON      CLEAR     65  57  75 N6        30.00R
DICKINSON      CLEAR     59  52  77 S7        30.03S
HETTINGER      CLEAR     66  48  52 SE8       30.07S
$$

 *****  OTHER OBSERVATIONS NORTHEAST NORTH DAKOTA  *****

CITY           SKY/WX    TMP DP  RH WIND       PRES   REMARKS
WALHALLA       NOT AVBL
LANGDON        FAIR      57  57 100 W5        30.00R
CAVALIER       FAIR      63  61  94 W7        29.95S
GRAFTON        FAIR      66  64  94 W6        29.97S
CANDO          NOT AVBL
FORT TOTTEN      N/A     62  58  86 CALM      29.95S
ROLLA            N/A     57  55  94 W8        30.02S
RUGBY          NOT AVBL
 ***** THE ABOVE OBSERVATIONS ARE NON NWS ARE NOT QUALITY
        CONTROLLED AND MAY MIS-REPORT RAIN FOR SNOW...
$$

 *****  OTHER OBSERVATIONS SOUTHEAST NORTH DAKOTA *****

CITY           SKY/WX    TMP DP  RH WIND       PRES   REMARKS
COOPERSTOWN    NOT AVBL
VALLEY CITY      N/A     59  59 100 CALM      30.04S
OAKES            N/A    N/A N/A N/A MISG        N/A
GWINNER        FAIR      61  57  88 W7        30.04S
SHEYENNE NWR     N/A     60  58  92 W5        29.95S
BUFFALO          N/A     61  56  84 SW6         N/A
WYNDMERE       NOT AVBL
 ***** THE ABOVE OBSERVATIONS ARE NON NWS ARE NOT QUALITY
       CONTROLLED AND MAY MIS-REPORT RAIN FOR SNOW...
$$

  *****  WEATHER ACROSS NORTHERN MINNESOTA  *****

CITY           SKY/WX    TMP DP  RH WIND       PRES   REMARKS
FLAG ISLAND    CLEAR     64  61  88 W8        29.91S
WARROAD        NOT AVBL
ROSEAU         CLEAR     64  59  82 W5        29.94S
HALLOCK        CLEAR     63  61  94 SW3       29.94S
THF RVR FALLS  CLEAR     62  60  93 CALM      29.97S
HALSTAD        NOT AVBL
FOSSTON        CLEAR     57  55  94 CALM      29.99R
BAUDETTE       CLEAR     60  58  92 W6        29.93S
WASKISH        CLEAR     66  63  88 W9        29.95R
CROOKSTON      PTCLDY    63  59  88 W3        29.97S
$$
  *****  WEATHER ACROSS CENTRAL AND WEST MINNESOTA  *****

CITY           SKY/WX    TMP DP  RH WIND       PRES   REMARKS
BEMIDJI        CLEAR     63  59  88 W6        29.98R
PARK RAPIDS    CLEAR     62  57  83 W3        29.99S
WADENA         CLEAR     61  57  88 SW5       30.00S
DETROIT LAKES  CLEAR     66  59  77 W6        30.01S
MOORHEAD       CLEAR     63  59  88 SW5       30.00S
FERGUS FALLS   CLEAR     63  57  82 CALM      30.03S
ELBOW LAKE     FAIR      62  59  90 NW3       30.03R
MORRIS MN      CLEAR     63  61  94 W6        30.02R
STAPLES        CLEAR     63  57  82 W5        30.00S
WHEATON        NOT AVBL
$$
  *****  WEATHER ELSEWHERE ACROSS MINNESOTA  *****

CITY           SKY/WX    TMP DP  RH WIND       PRES   REMARKS
DULUTH         CLEAR     66  61  84 NW9       29.93R
INTRNTL FALLS  CLEAR     61  58  90 W7        29.91S
ELY            CLEAR     63  57  82 W8        29.91R
CLOQUET        CLEAR     66  59  77 W7        29.94R
BRAINERD       CLEAR     68  59  73 W6        29.98S
HIBBING        CLEAR     64  59  83 NW8       29.94R
ALEXANDRIA     CLEAR     64  58  80 W6        30.03S
SAINT CLOUD    CLEAR     65  60  84 NW7       29.98F
MINNEAPOLIS    CLEAR     71  60  68 W6        29.99S
$$

  *****  WEATHER ACROSS SOUTH DAKOTA  *****

CITY           SKY/WX    TMP DP  RH WIND       PRES   REMARKS
SIOUX FALLS    CLEAR     65  59  81 W3        30.08F
BROOKINGS      CLEAR     64  61  90 CALM        N/A
WATERTOWN      CLEAR     66  60  81 CALM      30.08S
HURON          CLEAR     66  57  72 CALM      30.06F
SISSETON         N/A     64  58  80 W6        30.03R
ABERDEEN       CLEAR     60  57  89 S3        30.05S
MITCHELL       CLEAR     68  61  78 SW6       30.09S
PIERRE         CLEAR     65  51  60 SE7       30.06S
MOBRIDGE       CLEAR     67  59  75 SE7       30.03F
RAPID CITY     CLEAR     67  51  56 S9        30.12S
$$

  *****  SOME WEATHER IN NEARBY STATES *****

CITY           SKY/WX    TMP DP  RH WIND       PRES   REMARKS
GLASGOW MT     CLEAR     62  51  67 E8        29.98R
GREAT FALLS MT CLEAR     59  41  51 NW3       30.04R
CHEYENNE WY    CLEAR     59  54  83 SW17G24   30.30F
SCOTTSBLUFF NE CLEAR     62  55  77 E7        30.19F
OMAHA NE       MOCLDY    70  65  84 N7        30.05F
DES MOINES IA  PTCLDY    73  64  73 N8        30.04S
DAVENPORT IA   CLOUDY    70  66  87 N3        30.00R
CHICAGO IL     CLOUDY    75  67  76 SW9       29.97R
EAU CLAIRE WI  CLEAR     66  63  90 W3        29.96R
LA CROSSE WI   CLEAR     71  65  81 CALM      29.98R
$$

  *****  SOME NATIONAL WEATHER *****

CITY           SKY/WX    TMP DP  RH WIND       PRES   REMARKS
LA GUARDIA NY  CLOUDY    83  65  54 S6        29.93F
RALEIGH NC     PTCLDY    79  75  87 SW7       30.02F
ATLANTA GA     CLEAR     79  70  74 S5        30.03F
NEW ORLEANS LA CLOUDY    82  76  81 E3        29.93F
OKLAHOMA CITY  PTCLDY    80  71  74 S3        29.96F
ALBUQUERQUE NM MOCLDY    72  58  61 SE9       30.22F
SALT LAKE CITY CLEAR     74  38  27 N5        30.03S
LOS ANGELES CA PTCLDY    70  65  84 SW7       29.92S
BOISE ID       CLEAR     70  36  28 SE5       29.96F
SEATTLE WA     CLEAR     68  55  63 NE12      30.04S
$$

*** WEATHER ACROSS MANITOBA...SASKATCHEWAN AND ONTARIO ***
                ***ONTARIO***

CITY           SKY/WX    TMP DP  RH WIND       PRES   REMARKS
GERALDTON      MOCLDY    64  61  88 W9        29.68S
THUNDER BAY    CLEAR     66  59  77 W13       29.76S
SIOUX LOOKOUT  PTCLDY    61  57  88 NW9       29.84R
TORONTO        MOCLDY    73  68  83 S9        29.85F
BIG TROUT LK   LGT RAIN  59  57  94 NW9G18    29.63R
PICKLE LAKE    NOT AVBL
DRYDEN         CLEAR     61  59  94 W10       29.87S
KENORA         CLEAR     61  59  94 W5        29.91S
$$
                *** MANITOBA***

CITY           SKY/WX    TMP DP  RH WIND       PRES   REMARKS
BRANDON        CLEAR     55  54  94 W6        29.98R
DAUPHIN        CLEAR     61  57  88 W8        29.92S
ISLAND LAKE    CLOUDY    64  61  88 W6        29.79R
PILOT MOUND      N/A     57  55  94 W5          N/A
THE PAS        CLEAR     64  57  77 SW6       29.79F
THOMPSON       CLEAR     52  50  93 CALM      29.75F
WINNIPEG       CLEAR     61  59  94 W2        29.92S
LYNN LAKE      CLOUDY    64  57  77 MISG      29.65F
CHURCHILL      FOG       43  43 100 SE6       29.77F VSB 1/4
GILLAM         PTCLDY    54  52  94 E5        29.77S
$$
                ***SASKATCHEWAN***

CITY           SKY/WX    TMP DP  RH WIND       PRES   REMARKS
ESTEVAN        CLEAR     61  59  94 SE5       30.02R
KINDERSLEY     PTCLDY    61  57  88 SE7       29.95R
LLOYDMINSTER   LGT RAIN  59  57  94 NW8       29.95S
PRINCE ALBERT  PTCLDY    63  57  82 SW3       29.86S
REGINA         NOT AVBL
YORKTON        CLEAR     63  57  82 SW9       29.95S   C1F1C2F2C3F3C4F4C5F5C6F6C7F7C8F8C9F9CaFaCbFbCcFcCdFdCe!



USA.gov is the U.S. government's official web portal to all federal, state and local government web resources and services.